T7GPM LIRZ-LICC

Flight info

Callsign T7GPM
Flight time 1h 30m
Altitude 19000
Route GITOD5E GITOD Y106 TIBER/N0339F370 DCT TAGEL DCT VAKOR/N0341F190 Q789 UXUTA UXUTA1Q
Aircraft P180/L-SDE3FGHIRWY/L

Departure

Time 2026-04-21 16:27
Airport Perugia San Francesco d'Assisi – Umbria International Airport (LIRZ)

Arrival

Time 2026-04-21 17:57
Airport Catania-Fontanarossa Airport (LICC)
Time Latitude Longitude Altitude Speed Heading
2026-04-21 15:40 43.09427 12.50444 680 ft 0 kts 249°
2026-04-21 16:22 43.09426 12.50444 680 ft 0 kts 248°
2026-04-21 16:23 43.09418 12.50439 680 ft 3 kts 178°
2026-04-21 16:23 43.09405 12.50468 680 ft 5 kts 115°
2026-04-21 16:23 43.09384 12.50525 680 ft 8 kts 124°
2026-04-21 16:23 43.09332 12.50575 680 ft 10 kts 147°
2026-04-21 16:24 43.09262 12.50634 679 ft 13 kts 148°
2026-04-21 16:24 43.09180 12.50705 678 ft 15 kts 148°
2026-04-21 16:24 43.09097 12.50803 677 ft 17 kts 128°
2026-04-21 16:24 43.09047 12.50942 676 ft 14 kts 104°
2026-04-21 16:25 43.09044 12.50959 676 ft 0 kts 104°
2026-04-21 16:25 43.09043 12.50964 676 ft 4 kts 104°
2026-04-21 16:25 43.09027 12.51048 673 ft 14 kts 104°
2026-04-21 16:26 43.08979 12.51105 671 ft 5 kts 93°
2026-04-21 16:26 43.09013 12.51121 672 ft 0 kts 15°
2026-04-21 16:26 43.09260 12.51207 672 ft 91 kts 14°
2026-04-21 16:26 43.10149 12.51518 751 ft 160 kts 14°
2026-04-21 16:27 43.11267 12.51917 1528 ft 164 kts 14°
2026-04-21 16:27 43.12298 12.52275 2934 ft 141 kts 13°
2026-04-21 16:27 43.13273 12.52606 4020 ft 155 kts 13°
2026-04-21 16:27 43.14372 12.52968 4848 ft 165 kts 13°
2026-04-21 16:28 43.15308 12.53817 5730 ft 168 kts 63°
2026-04-21 16:28 43.15236 12.55349 6690 ft 169 kts 125°
2026-04-21 16:28 43.14232 12.56306 7401 ft 187 kts 160°
2026-04-21 16:28 43.12973 12.56654 8285 ft 188 kts 179°
2026-04-21 16:29 43.11670 12.56403 9220 ft 192 kts 199°
2026-04-21 16:29 43.10402 12.55631 10162 ft 205 kts 205°
2026-04-21 16:29 43.09122 12.54859 10676 ft 202 kts 204°
2026-04-21 16:29 43.07808 12.54112 11039 ft 205 kts 203°
2026-04-21 16:30 43.06483 12.53372 11430 ft 206 kts 202°
2026-04-21 16:30 43.05148 12.52628 11805 ft 207 kts 202°
2026-04-21 16:30 43.03811 12.51882 12170 ft 208 kts 202°
2026-04-21 16:30 43.02441 12.51118 12242 ft 223 kts 202°
2026-04-21 16:31 43.00956 12.50280 12253 ft 237 kts 203°
2026-04-21 16:31 42.99411 12.49404 12436 ft 240 kts 203°
2026-04-21 16:31 42.97869 12.48536 12671 ft 241 kts 202°
2026-04-21 16:31 42.96315 12.47665 12892 ft 242 kts 203°
2026-04-21 16:32 42.94754 12.46787 13123 ft 243 kts 203°
2026-04-21 16:32 42.93189 12.45914 13343 ft 243 kts 202°
2026-04-21 16:32 42.91616 12.45037 13557 ft 244 kts 202°
2026-04-21 16:32 42.90040 12.44159 13757 ft 245 kts 202°
2026-04-21 16:33 42.88460 12.43277 13953 ft 246 kts 202°
2026-04-21 16:33 42.86872 12.42392 14156 ft 246 kts 202°
2026-04-21 16:33 42.85282 12.41506 14351 ft 247 kts 202°
2026-04-21 16:33 42.83629 12.40917 14517 ft 249 kts 178°
2026-04-21 16:34 42.82050 12.41742 14706 ft 250 kts 147°
2026-04-21 16:34 42.80601 12.43069 14875 ft 251 kts 149°
2026-04-21 16:34 42.79010 12.44042 15048 ft 251 kts 162°
2026-04-21 16:34 42.77329 12.44709 15219 ft 252 kts 165°
2026-04-21 16:35 42.75653 12.45414 15380 ft 252 kts 161°
2026-04-21 16:35 42.74008 12.46268 15540 ft 253 kts 158°
2026-04-21 16:35 42.72375 12.47182 15702 ft 254 kts 158°
2026-04-21 16:35 42.70726 12.48047 15858 ft 254 kts 160°
2026-04-21 16:36 42.69051 12.48851 16006 ft 255 kts 161°
2026-04-21 16:36 42.67370 12.49646 16148 ft 256 kts 161°
2026-04-21 16:36 42.65714 12.50467 16291 ft 257 kts 160°
2026-04-21 16:36 42.64019 12.51338 16436 ft 257 kts 160°
2026-04-21 16:37 42.62361 12.52183 16584 ft 257 kts 160°
2026-04-21 16:37 42.60676 12.53018 16716 ft 258 kts 160°
2026-04-21 16:37 42.58985 12.53844 16850 ft 258 kts 160°
2026-04-21 16:37 42.57291 12.54681 16982 ft 259 kts 160°
2026-04-21 16:38 42.55601 12.55529 17112 ft 259 kts 160°
2026-04-21 16:38 42.53905 12.56383 17234 ft 260 kts 160°
2026-04-21 16:38 42.52205 12.57228 17357 ft 260 kts 160°
2026-04-21 16:38 42.50517 12.58058 17633 ft 254 kts 160°
2026-04-21 16:39 42.48888 12.58862 17997 ft 245 kts 160°
2026-04-21 16:39 42.47315 12.59645 18371 ft 237 kts 160°
2026-04-21 16:39 42.45795 12.60405 18734 ft 230 kts 160°
2026-04-21 16:39 42.44324 12.61135 18993 ft 229 kts 160°
2026-04-21 16:40 42.42793 12.61888 18991 ft 239 kts 160°
2026-04-21 16:40 42.41254 12.62646 18995 ft 247 kts 160°
2026-04-21 16:40 42.39604 12.63465 19002 ft 255 kts 160°
2026-04-21 16:40 42.37916 12.64304 19001 ft 261 kts 160°
2026-04-21 16:41 42.36191 12.65157 19010 ft 266 kts 160°
2026-04-21 16:41 42.34428 12.66026 19000 ft 271 kts 160°
2026-04-21 16:41 42.32648 12.66901 19007 ft 274 kts 160°
2026-04-21 16:41 42.30849 12.67789 18996 ft 277 kts 160°
2026-04-21 16:42 42.29028 12.68690 19001 ft 279 kts 160°
2026-04-21 16:42 42.27217 12.69585 19004 ft 281 kts 160°
2026-04-21 16:42 42.25368 12.70495 19006 ft 283 kts 160°
2026-04-21 16:42 42.23513 12.71403 19008 ft 284 kts 160°
2026-04-21 16:43 42.21651 12.72317 19009 ft 285 kts 160°
2026-04-21 16:43 42.19784 12.73237 19008 ft 286 kts 160°
2026-04-21 16:43 42.17915 12.74159 19008 ft 286 kts 160°
2026-04-21 16:43 42.16065 12.75069 19009 ft 287 kts 160°
2026-04-21 16:44 42.14162 12.76000 19009 ft 287 kts 160°
2026-04-21 16:44 42.12306 12.76905 18998 ft 288 kts 160°
2026-04-21 16:44 42.10422 12.77827 18999 ft 288 kts 160°
2026-04-21 16:44 42.08535 12.78754 18999 ft 288 kts 160°
2026-04-21 16:45 42.06650 12.79682 18999 ft 289 kts 160°
2026-04-21 16:45 42.04721 12.80625 19001 ft 299 kts 160°
2026-04-21 16:45 42.02773 12.81573 19004 ft 297 kts 160°
2026-04-21 16:45 42.00832 12.82517 19005 ft 296 kts 160°
2026-04-21 16:46 41.98927 12.83447 19006 ft 294 kts 160°
2026-04-21 16:46 41.97006 12.84388 19006 ft 293 kts 160°
2026-04-21 16:46 41.95090 12.85326 19005 ft 292 kts 160°
2026-04-21 16:46 41.93170 12.86261 19001 ft 292 kts 160°
2026-04-21 16:47 41.91260 12.87185 19000 ft 291 kts 160°
2026-04-21 16:47 41.89353 12.88109 19000 ft 291 kts 160°
2026-04-21 16:47 41.87447 12.89036 18999 ft 291 kts 160°
2026-04-21 16:47 41.85548 12.89963 18999 ft 291 kts 160°
2026-04-21 16:48 41.83671 12.90884 18998 ft 290 kts 160°
2026-04-21 16:48 41.81775 12.91816 18999 ft 290 kts 160°
2026-04-21 16:48 41.79877 12.92752 18999 ft 290 kts 160°
2026-04-21 16:48 41.77983 12.93689 18999 ft 290 kts 160°
2026-04-21 16:49 41.76093 12.94627 18999 ft 289 kts 160°
2026-04-21 16:49 41.74206 12.95568 18999 ft 289 kts 160°
2026-04-21 16:49 41.72318 12.96511 18999 ft 289 kts 160°
2026-04-21 16:49 41.70433 12.97456 19000 ft 289 kts 160°
2026-04-21 16:50 41.68552 12.98403 18999 ft 289 kts 160°
2026-04-21 16:50 41.66669 12.99354 18999 ft 289 kts 160°
2026-04-21 16:50 41.64803 13.00300 18998 ft 290 kts 159°
2026-04-21 16:50 41.62917 13.01259 18998 ft 290 kts 159°
2026-04-21 16:51 41.61033 13.02221 18998 ft 290 kts 159°
2026-04-21 16:51 41.59149 13.03185 18999 ft 290 kts 159°
2026-04-21 16:51 41.57266 13.04152 18999 ft 290 kts 159°
2026-04-21 16:51 41.55383 13.05122 19000 ft 290 kts 159°
2026-04-21 16:52 41.53497 13.06097 19000 ft 290 kts 159°
2026-04-21 16:52 41.51616 13.07072 19000 ft 290 kts 159°
2026-04-21 16:52 41.49733 13.08051 19000 ft 290 kts 159°
2026-04-21 16:52 41.47856 13.09030 19001 ft 289 kts 159°
2026-04-21 16:53 41.45978 13.10012 19001 ft 289 kts 159°
2026-04-21 16:53 41.44107 13.10995 19001 ft 289 kts 159°
2026-04-21 16:53 41.42238 13.11980 19001 ft 289 kts 159°
2026-04-21 16:53 41.40373 13.12966 19001 ft 288 kts 159°
2026-04-21 16:54 41.38531 13.13942 19001 ft 288 kts 159°
2026-04-21 16:54 41.36664 13.14935 19001 ft 288 kts 158°
2026-04-21 16:54 41.34802 13.15929 19001 ft 288 kts 158°
2026-04-21 16:54 41.32939 13.16926 19001 ft 288 kts 158°
2026-04-21 16:55 41.31078 13.17926 19001 ft 288 kts 158°
2026-04-21 16:55 41.29221 13.18927 19001 ft 288 kts 158°
2026-04-21 16:55 41.27362 13.19932 19001 ft 288 kts 158°
2026-04-21 16:55 41.25528 13.20927 19001 ft 288 kts 158°
2026-04-21 16:56 41.23675 13.21935 19001 ft 288 kts 158°
2026-04-21 16:56 41.21823 13.22946 19001 ft 288 kts 158°
2026-04-21 16:56 41.19968 13.23962 19000 ft 288 kts 158°
2026-04-21 16:56 41.18115 13.24981 19001 ft 288 kts 158°
2026-04-21 16:57 41.16264 13.26001 19001 ft 288 kts 158°
2026-04-21 16:57 41.14411 13.27027 19001 ft 288 kts 158°
2026-04-21 16:57 41.12564 13.28052 19001 ft 288 kts 158°
2026-04-21 16:57 41.10717 13.29081 19001 ft 288 kts 158°
2026-04-21 16:58 41.08891 13.30101 19001 ft 288 kts 157°
2026-04-21 16:58 41.07045 13.31135 19001 ft 288 kts 157°
2026-04-21 16:58 41.05200 13.32171 19001 ft 287 kts 157°
2026-04-21 16:58 41.03362 13.33208 19001 ft 287 kts 157°
2026-04-21 16:59 41.01525 13.34247 19001 ft 287 kts 157°
2026-04-21 16:59 40.99687 13.35290 19001 ft 287 kts 157°
2026-04-21 16:59 40.97855 13.36333 19001 ft 287 kts 157°
2026-04-21 16:59 40.96025 13.37378 19001 ft 287 kts 157°
2026-04-21 17:00 40.94193 13.38427 19001 ft 287 kts 157°
2026-04-21 17:00 40.92384 13.39467 19001 ft 286 kts 157°
2026-04-21 17:00 40.91171 13.40166 19001 ft 286 kts 156°
2026-04-21 17:00 40.88730 13.41578 19001 ft 286 kts 156°
2026-04-21 17:01 40.86904 13.42639 19001 ft 286 kts 156°
2026-04-21 17:01 40.85079 13.43702 19001 ft 286 kts 156°
2026-04-21 17:01 40.83257 13.44767 19001 ft 286 kts 156°
2026-04-21 17:01 40.81436 13.45835 19001 ft 286 kts 156°
2026-04-21 17:02 40.79617 13.46905 19001 ft 286 kts 156°
2026-04-21 17:02 40.77814 13.47968 19001 ft 286 kts 156°
2026-04-21 17:02 40.75996 13.49045 19001 ft 286 kts 156°
2026-04-21 17:02 40.74178 13.50125 19001 ft 286 kts 156°
2026-04-21 17:03 40.72364 13.51210 19001 ft 286 kts 156°
2026-04-21 17:03 40.70547 13.52300 19001 ft 286 kts 156°
2026-04-21 17:03 40.68735 13.53389 19001 ft 286 kts 156°
2026-04-21 17:03 40.66922 13.54483 19001 ft 286 kts 155°
2026-04-21 17:04 40.65112 13.55578 19001 ft 286 kts 155°
2026-04-21 17:04 40.63327 13.56662 19001 ft 286 kts 155°
2026-04-21 17:04 40.61518 13.57764 19001 ft 286 kts 155°
2026-04-21 17:04 40.59708 13.58870 19001 ft 286 kts 155°
2026-04-21 17:05 40.57904 13.59976 19001 ft 286 kts 155°
2026-04-21 17:05 40.56098 13.61086 19002 ft 286 kts 155°
2026-04-21 17:05 40.54294 13.62199 19002 ft 286 kts 155°
2026-04-21 17:05 40.53100 13.62937 19002 ft 286 kts 155°
2026-04-21 17:06 40.51292 13.64057 19002 ft 286 kts 155°
2026-04-21 17:06 40.48903 13.65542 19002 ft 286 kts 155°
2026-04-21 17:06 40.47107 13.66664 19002 ft 286 kts 155°
2026-04-21 17:06 40.45887 13.67427 19002 ft 286 kts 155°
2026-04-21 17:07 40.44112 13.68541 19002 ft 286 kts 155°
2026-04-21 17:07 40.42315 13.69673 19002 ft 286 kts 154°
2026-04-21 17:07 40.40521 13.70807 19002 ft 286 kts 154°
2026-04-21 17:07 40.38727 13.71944 19002 ft 286 kts 154°
2026-04-21 17:08 40.36935 13.73083 19002 ft 286 kts 154°
2026-04-21 17:08 40.35140 13.74227 19002 ft 286 kts 154°
2026-04-21 17:08 40.33350 13.75372 19003 ft 286 kts 154°
2026-04-21 17:08 40.31557 13.76521 19003 ft 286 kts 154°
2026-04-21 17:09 40.27980 13.78825 19003 ft 286 kts 154°
2026-04-21 17:09 40.26193 13.79981 19003 ft 286 kts 154°
2026-04-21 17:09 40.24430 13.81124 19003 ft 286 kts 154°
2026-04-21 17:10 40.22643 13.82287 19003 ft 286 kts 154°
2026-04-21 17:10 40.20857 13.83452 19003 ft 286 kts 154°
2026-04-21 17:10 40.19074 13.84618 19003 ft 286 kts 154°
2026-04-21 17:10 40.17294 13.85785 19003 ft 286 kts 154°
2026-04-21 17:11 40.15511 13.86958 19003 ft 286 kts 153°
2026-04-21 17:11 40.13735 13.88129 19004 ft 286 kts 153°
2026-04-21 17:11 40.11958 13.89305 19004 ft 286 kts 153°
2026-04-21 17:11 40.10201 13.90470 19004 ft 286 kts 153°
2026-04-21 17:12 40.08426 13.91650 19004 ft 286 kts 153°
2026-04-21 17:12 40.06648 13.92838 19004 ft 286 kts 153°
2026-04-21 17:12 40.04875 13.94029 19004 ft 286 kts 153°
2026-04-21 17:12 40.03100 13.95224 19004 ft 286 kts 153°
2026-04-21 17:13 40.01331 13.96418 19004 ft 286 kts 153°
2026-04-21 17:13 39.99565 13.97618 19004 ft 286 kts 153°
2026-04-21 17:13 39.97820 13.98808 19004 ft 286 kts 153°
2026-04-21 17:13 39.96054 14.00015 19004 ft 286 kts 153°
2026-04-21 17:14 39.94285 14.01228 19004 ft 286 kts 152°
2026-04-21 17:14 39.92522 14.02440 19004 ft 286 kts 152°
2026-04-21 17:14 39.90761 14.03653 19004 ft 286 kts 152°
2026-04-21 17:14 39.88998 14.04872 19005 ft 286 kts 152°
2026-04-21 17:15 39.87236 14.06094 19005 ft 286 kts 152°
2026-04-21 17:15 39.85481 14.07315 19005 ft 286 kts 152°
2026-04-21 17:15 39.83744 14.08526 19005 ft 286 kts 152°
2026-04-21 17:15 39.81990 14.09753 19005 ft 286 kts 152°
2026-04-21 17:16 39.80236 14.10983 19006 ft 286 kts 152°
2026-04-21 17:16 39.78481 14.12217 19006 ft 286 kts 152°
2026-04-21 17:16 39.76732 14.13452 19006 ft 286 kts 152°
2026-04-21 17:16 39.74979 14.14692 19006 ft 286 kts 152°
2026-04-21 17:17 39.73228 14.15935 19006 ft 286 kts 152°
2026-04-21 17:17 39.71482 14.17177 19006 ft 286 kts 152°
2026-04-21 17:17 39.69729 14.18427 19006 ft 286 kts 151°
2026-04-21 17:17 39.67984 14.19676 19006 ft 286 kts 151°
2026-04-21 17:18 39.66265 14.20909 19006 ft 286 kts 151°
2026-04-21 17:18 39.64500 14.22180 19006 ft 286 kts 151°
2026-04-21 17:18 39.62761 14.23435 19006 ft 286 kts 151°
2026-04-21 17:18 39.61022 14.24693 19006 ft 286 kts 151°
2026-04-21 17:19 39.59304 14.25940 19006 ft 286 kts 151°
2026-04-21 17:19 39.57564 14.27206 19006 ft 286 kts 151°
2026-04-21 17:19 39.55823 14.28477 19006 ft 286 kts 151°
2026-04-21 17:19 39.54087 14.29749 19006 ft 286 kts 151°
2026-04-21 17:20 39.52350 14.31024 19006 ft 286 kts 150°
2026-04-21 17:20 39.50617 14.32298 19006 ft 286 kts 150°
2026-04-21 17:20 39.48884 14.33578 19006 ft 286 kts 150°
2026-04-21 17:20 39.47180 14.34839 19007 ft 286 kts 150°
2026-04-21 17:21 39.45449 14.36124 19007 ft 286 kts 150°
2026-04-21 17:21 39.43720 14.37411 19005 ft 286 kts 150°
2026-04-21 17:21 39.41969 14.38716 18848 ft 292 kts 150°
2026-04-21 17:21 39.40213 14.40019 18849 ft 290 kts 150°
2026-04-21 17:22 39.38461 14.41323 18850 ft 290 kts 150°
2026-04-21 17:22 39.36713 14.42630 18730 ft 293 kts 150°
2026-04-21 17:22 39.34929 14.43957 18528 ft 298 kts 150°
2026-04-21 17:22 39.33132 14.45285 18530 ft 296 kts 150°
2026-04-21 17:23 39.31354 14.46605 18531 ft 293 kts 150°
2026-04-21 17:23 39.29594 14.47922 18530 ft 292 kts 150°
2026-04-21 17:23 39.27818 14.49166 18525 ft 290 kts 158°
2026-04-21 17:23 39.25846 14.49662 18519 ft 289 kts 178°
2026-04-21 17:24 39.23866 14.49651 18519 ft 287 kts 181°
2026-04-21 17:24 39.21869 14.49725 18517 ft 287 kts 174°
2026-04-21 17:24 39.19900 14.50124 18517 ft 287 kts 169°
2026-04-21 17:24 39.17935 14.50578 18517 ft 286 kts 171°
2026-04-21 17:25 39.15961 14.50899 18517 ft 286 kts 175°
2026-04-21 17:25 39.13979 14.51109 18517 ft 285 kts 176°
2026-04-21 17:25 39.11993 14.51327 18517 ft 285 kts 174°
2026-04-21 17:25 39.10022 14.51630 18516 ft 285 kts 173°
2026-04-21 17:26 39.08053 14.51988 18516 ft 285 kts 172°
2026-04-21 17:26 39.06109 14.52321 18516 ft 285 kts 173°
2026-04-21 17:26 39.04135 14.52605 18516 ft 285 kts 174°
2026-04-21 17:26 39.02163 14.52863 18516 ft 285 kts 174°
2026-04-21 17:27 39.00192 14.53142 18517 ft 285 kts 174°
2026-04-21 17:27 38.98224 14.53456 18517 ft 285 kts 173°
2026-04-21 17:27 38.96257 14.53778 18517 ft 285 kts 173°
2026-04-21 17:27 38.94314 14.54076 18516 ft 285 kts 174°
2026-04-21 17:28 38.92346 14.54356 18516 ft 285 kts 174°
2026-04-21 17:28 38.90379 14.54635 18516 ft 284 kts 174°
2026-04-21 17:28 38.88411 14.54932 18517 ft 284 kts 173°
2026-04-21 17:28 38.86442 14.55242 18517 ft 284 kts 173°
2026-04-21 17:29 38.84479 14.55546 18518 ft 284 kts 173°
2026-04-21 17:29 38.82507 14.55838 18518 ft 284 kts 174°
2026-04-21 17:29 38.80554 14.56119 18513 ft 280 kts 174°
2026-04-21 17:29 38.78620 14.56405 18500 ft 278 kts 174°
2026-04-21 17:30 38.76733 14.56694 18485 ft 276 kts 173°
2026-04-21 17:30 38.74830 14.56987 18466 ft 275 kts 173°
2026-04-21 17:30 38.72935 14.57271 18445 ft 274 kts 174°
2026-04-21 17:30 38.71043 14.57547 18423 ft 273 kts 174°
2026-04-21 17:31 38.69158 14.57822 18401 ft 272 kts 174°
2026-04-21 17:31 38.67279 14.58105 18377 ft 272 kts 173°
2026-04-21 17:31 38.65400 14.58393 18354 ft 271 kts 173°
2026-04-21 17:31 38.63525 14.58676 18330 ft 271 kts 174°
2026-04-21 17:32 38.62283 14.58859 18314 ft 271 kts 174°
2026-04-21 17:32 38.59776 14.59225 18282 ft 271 kts 174°
2026-04-21 17:32 38.57892 14.59505 18262 ft 274 kts 174°
2026-04-21 17:32 38.55986 14.59792 18251 ft 279 kts 173°
2026-04-21 17:33 38.54035 14.60085 18256 ft 285 kts 174°
2026-04-21 17:33 38.52049 14.60378 18265 ft 289 kts 174°
2026-04-21 17:33 38.50061 14.60670 18289 ft 292 kts 174°
2026-04-21 17:33 38.48035 14.60971 18312 ft 294 kts 174°
2026-04-21 17:34 38.45991 14.61278 18338 ft 296 kts 173°
2026-04-21 17:34 38.43941 14.61587 18366 ft 297 kts 174°
2026-04-21 17:34 38.41876 14.61893 18396 ft 298 kts 174°
2026-04-21 17:34 38.39809 14.62195 18427 ft 299 kts 174°
2026-04-21 17:35 38.37762 14.62494 18458 ft 299 kts 174°
2026-04-21 17:35 38.35687 14.62801 18490 ft 300 kts 174°
2026-04-21 17:35 38.33606 14.63036 18513 ft 300 kts 181°
2026-04-21 17:35 38.31633 14.62253 18493 ft 301 kts 213°
2026-04-21 17:36 38.30121 14.60435 18500 ft 298 kts 236°
2026-04-21 17:36 38.29367 14.58032 18493 ft 291 kts 259°
2026-04-21 17:36 38.29440 14.55499 18484 ft 286 kts 284°
2026-04-21 17:36 38.30295 14.53246 18463 ft 283 kts 307°
2026-04-21 17:37 38.31534 14.51332 18438 ft 279 kts 299°
2026-04-21 17:37 38.31892 14.48977 18370 ft 279 kts 263°
2026-04-21 17:37 38.31468 14.47409 18326 ft 278 kts 240°
2026-04-21 17:37 38.29485 14.45447 18271 ft 278 kts 201°
2026-04-21 17:38 38.27592 14.45061 18245 ft 277 kts 180°
2026-04-21 17:38 38.25672 14.45199 18239 ft 275 kts 176°
2026-04-21 17:38 38.23767 14.45329 18226 ft 273 kts 180°
2026-04-21 17:38 38.21867 14.45266 18214 ft 272 kts 183°
2026-04-21 17:39 38.19969 14.45176 18195 ft 272 kts 181°
2026-04-21 17:39 38.18075 14.45176 18177 ft 271 kts 179°
2026-04-21 17:39 38.16187 14.45236 18158 ft 271 kts 179°
2026-04-21 17:39 38.14301 14.45279 18138 ft 271 kts 180°
2026-04-21 17:40 38.12442 14.45270 18119 ft 270 kts 181°
2026-04-21 17:40 38.10560 14.45240 18100 ft 270 kts 181°
2026-04-21 17:40 38.08676 14.45232 18045 ft 271 kts 180°
2026-04-21 17:40 38.06757 14.45252 17796 ft 279 kts 180°
2026-04-21 17:41 38.04790 14.45279 17549 ft 285 kts 180°
2026-04-21 17:41 38.02793 14.45285 17304 ft 289 kts 180°
2026-04-21 17:41 38.00762 14.45276 17057 ft 293 kts 180°
2026-04-21 17:41 37.98713 14.45267 16810 ft 296 kts 180°
2026-04-21 17:42 37.96695 14.45268 16564 ft 289 kts 180°
2026-04-21 17:42 37.94707 14.45280 16313 ft 284 kts 180°
2026-04-21 17:42 37.92699 14.45293 16063 ft 289 kts 180°
2026-04-21 17:42 37.90670 14.45302 15811 ft 296 kts 180°
2026-04-21 17:43 37.88555 14.45309 15293 ft 311 kts 180°
2026-04-21 17:43 37.86341 14.45325 14713 ft 323 kts 180°
2026-04-21 17:43 37.84072 14.45334 14208 ft 325 kts 180°
2026-04-21 17:43 37.81820 14.45324 13704 ft 322 kts 180°
2026-04-21 17:44 37.79586 14.45305 13210 ft 320 kts 181°
2026-04-21 17:44 37.77385 14.45295 12723 ft 318 kts 180°
2026-04-21 17:44 37.75178 14.45305 12233 ft 317 kts 180°
2026-04-21 17:44 37.72978 14.45329 11746 ft 315 kts 180°
2026-04-21 17:45 37.70793 14.45353 11266 ft 312 kts 180°
2026-04-21 17:45 37.68626 14.45360 10789 ft 310 kts 180°
2026-04-21 17:45 37.66488 14.45350 10316 ft 303 kts 181°
2026-04-21 17:45 37.64395 14.45335 9845 ft 298 kts 180°
2026-04-21 17:46 37.62339 14.45331 9374 ft 293 kts 180°
2026-04-21 17:46 37.60329 14.45343 8911 ft 290 kts 180°
2026-04-21 17:46 37.58322 14.45364 8449 ft 287 kts 180°
2026-04-21 17:46 37.56356 14.45636 7981 ft 284 kts 164°
2026-04-21 17:47 37.54762 14.47042 7468 ft 285 kts 127°
2026-04-21 17:47 37.53852 14.49251 7011 ft 285 kts 113°
2026-04-21 17:47 37.53018 14.51511 6559 ft 280 kts 121°
2026-04-21 17:47 37.51721 14.53216 6089 ft 264 kts 143°
2026-04-21 17:48 37.50766 14.54134 5795 ft 255 kts 141°
2026-04-21 17:48 37.49431 14.56482 5191 ft 251 kts 117°
2026-04-21 17:48 37.48532 14.58387 4755 ft 255 kts 127°
2026-04-21 17:48 37.47080 14.59635 4281 ft 259 kts 164°
2026-04-21 17:49 37.45345 14.60091 3847 ft 246 kts 165°
2026-04-21 17:49 37.44100 14.61308 3545 ft 227 kts 117°
2026-04-21 17:49 37.43970 14.63171 3327 ft 208 kts 81°
2026-04-21 17:49 37.44264 14.64880 3119 ft 193 kts 71°
2026-04-21 17:50 37.44702 14.66434 3083 ft 189 kts 72°
2026-04-21 17:50 37.44948 14.68105 3080 ft 199 kts 85°
2026-04-21 17:50 37.44989 14.69871 3084 ft 205 kts 89°
2026-04-21 17:50 37.45024 14.71680 3090 ft 208 kts 87°
2026-04-21 17:51 37.45109 14.73510 3096 ft 211 kts 86°
2026-04-21 17:51 37.45214 14.75302 3096 ft 193 kts 86°
2026-04-21 17:51 37.45295 14.76900 3094 ft 175 kts 86°
2026-04-21 17:51 37.45362 14.78386 3087 ft 166 kts 86°
2026-04-21 17:52 37.45407 14.79338 3082 ft 163 kts 86°
2026-04-21 17:52 37.45473 14.80728 3075 ft 155 kts 86°
2026-04-21 17:52 37.45542 14.82094 3083 ft 157 kts 87°
2026-04-21 17:52 37.45546 14.83480 3021 ft 161 kts 91°
2026-04-21 17:53 37.45496 14.84901 2915 ft 163 kts 94°
2026-04-21 17:53 37.45436 14.86324 2776 ft 163 kts 92°
2026-04-21 17:53 37.45400 14.87728 2602 ft 158 kts 91°
2026-04-21 17:53 37.45371 14.89108 2358 ft 158 kts 91°
2026-04-21 17:54 37.45336 14.90499 2089 ft 159 kts 92°
2026-04-21 17:54 37.45363 14.91840 1848 ft 152 kts 84°
2026-04-21 17:54 37.45514 14.93120 1681 ft 143 kts 83°
2026-04-21 17:54 37.45620 14.94364 1472 ft 153 kts 83°
2026-04-21 17:55 37.45752 14.95841 1288 ft 181 kts 83°
2026-04-21 17:55 37.45895 14.97479 1067 ft 192 kts 84°
2026-04-21 17:55 37.46018 14.99054 952 ft 163 kts 84°
2026-04-21 17:55 37.46126 15.00364 701 ft 142 kts 84°
2026-04-21 17:56 37.46240 15.01579 509 ft 141 kts 83°
2026-04-21 17:56 37.46348 15.02801 352 ft 139 kts 83°
2026-04-21 17:56 37.46450 15.03992 226 ft 135 kts 83°
2026-04-21 17:56 37.46550 15.05140 63 ft 127 kts 84°
2026-04-21 17:57 37.46627 15.06103 27 ft 94 kts 84°
2026-04-21 17:57 37.46675 15.06695 23 ft 40 kts 84°
2026-04-21 17:57 37.46689 15.06888 24 ft 4 kts 80°
2026-04-21 17:57 37.46760 15.06925 23 ft 12 kts 340°
2026-04-21 17:58 37.46790 15.06908 20 ft 0 kts 335°
2026-04-21 17:58 37.46791 15.06908 20 ft 1 kts 335°
2026-04-21 17:58 37.46814 15.06895 20 ft 0 kts 336°
2026-04-21 17:59 37.46823 15.06890 19 ft 4 kts 336°
2026-04-21 17:59 37.46858 15.06852 19 ft 9 kts 292°
2026-04-21 17:59 37.46855 15.06771 21 ft 10 kts 263°
2026-04-21 18:00 37.46857 15.06702 22 ft 7 kts 303°
2026-04-21 18:00 37.46915 15.06684 22 ft 11 kts 353°
2026-04-21 18:00 37.46924 15.06682 21 ft 0 kts 352°